When you browse on this site, cookies collect data to enhance your experience and personalize the content and advertising you see.
Visit our Privacy Policy to learn more. By continuing to use the site, you agree to this use of cookies and data.
  • In United Kingdom
  • List of Countries
  • For 7 days
  • Water Temperature
  • Satellite Maps
  • Weather Map
  • Weather Widgets
  • user-avatar
    Login

    Hourly Weather Duabo

    Today, 21 February, Thursday

    Time Temperature Precipitation Wind Pressure Humidity
    00:00 +21°C° 0 mm 0 mps 741 mmHg 88%
    01:00 +21°C° 0 mm 0 mps 741 mmHg 89%
    02:00 +23°C° 0 mm 1 mps 740 mmHg 89%
    03:00 +21°C° 0 mm 0 mps 740 mmHg 89%
    04:00 +21°C° 0 mm 0 mps 740 mmHg 90%
    05:00 +21°C° 0 mm 0 mps 740 mmHg 90%
    06:00 +22°C° 0 mm 0 mps 741 mmHg 84%
    07:00 +24°C° 0 mm 0 mps 741 mmHg 77%
    08:00 +26°C° 0 mm 0 mps 742 mmHg 71%
    09:00 +29°C° 0 mm 0 mps 742 mmHg 61%
    10:00 +32°C° 0 mm 0 mps 742 mmHg 52%
    11:00 +35°C° 0 mm 0 mps 742 mmHg 42%
    12:00 +36°C° 0.1 mm 1 mps 741 mmHg 43%
    13:00 +36°C° 0.1 mm 1 mps 741 mmHg 45%
    14:00 +36°C° 0.1 mm 1 mps 740 mmHg 46%
    15:00 +34°C° 0.2 mm 1 mps 740 mmHg 54%
    16:00 +32°C° 0.2 mm 2 mps 740 mmHg 63%
    17:00 +31°C° 0.2 mm 2 mps 740 mmHg 71%
    18:00 +30°C° 0 mm 2 mps 740 mmHg 75%
    19:00 +29°C° 0 mm 2 mps 741 mmHg 80%
    20:00 +27°C° 0 mm 2 mps 741 mmHg 84%
    21:00 +27°C° 0 mm 2 mps 742 mmHg 85%
    22:00 +27°C° 0 mm 1 mps 742 mmHg 86%
    23:00 +27°C° 0 mm 1 mps 742 mmHg 87%

    Tomorrow, 22 February, Friday

    Time Temperature Precipitation Wind Pressure Humidity
    00:00 +26°C° 0 mm 1 mps 742 mmHg 88%
    01:00 +26°C° 0 mm 1 mps 741 mmHg 90%
    02:00 +26°C° 0 mm 1 mps 741 mmHg 91%
    03:00 +26°C° 0 mm 1 mps 741 mmHg 92%
    04:00 +25°C° 0 mm 1 mps 741 mmHg 93%
    05:00 +25°C° 0 mm 1 mps 741 mmHg 93%
    06:00 +27°C° 0 mm 1 mps 741 mmHg 88%
    07:00 +28°C° 0 mm 1 mps 742 mmHg 82%
    08:00 +29°C° 0 mm 1 mps 742 mmHg 77%
    09:00 +31°C° 0 mm 1 mps 742 mmHg 70%
    10:00 +32°C° 0 mm 1 mps 742 mmHg 63%
    11:00 +35°C° 0 mm 2 mps 742 mmHg 56%
    12:00 +35°C° 0.9 mm 2 mps 741 mmHg 58%
    13:00 +34°C° 0.9 mm 1 mps 740 mmHg 60%
    14:00 +33°C° 0.9 mm 1 mps 739 mmHg 62%
    15:00 +32°C° 0.7 mm 2 mps 739 mmHg 67%
    16:00 +31°C° 0.7 mm 2 mps 739 mmHg 72%
    17:00 +30°C° 0.7 mm 2 mps 739 mmHg 77%
    18:00 +29°C° 0.1 mm 2 mps 739 mmHg 80%
    19:00 +28°C° 0.1 mm 2 mps 740 mmHg 84%
    20:00 +27°C° 0.1 mm 2 mps 741 mmHg 87%
    21:00 +27°C° 0 mm 2 mps 741 mmHg 89%
    22:00 +27°C° 0 mm 2 mps 741 mmHg 91%
    23:00 +26°C° 0 mm 1 mps 741 mmHg 93%

    Day after tomorrow, 23 February, Saturday

    Time Temperature Precipitation Wind Pressure Humidity
    00:00 +26°C° 0 mm 1 mps 741 mmHg 93%
    01:00 +26°C° 0 mm 2 mps 740 mmHg 93%
    02:00 +26°C° 0 mm 2 mps 740 mmHg 94%
    03:00 +26°C° 0 mm 1 mps 740 mmHg 95%
    04:00 +25°C° 0 mm 1 mps 740 mmHg 96%
    05:00 +25°C° 0 mm 1 mps 740 mmHg 97%
    06:00 +26°C° 0.1 mm 1 mps 741 mmHg 92%
    07:00 +27°C° 0.1 mm 1 mps 741 mmHg 88%
    08:00 +28°C° 0.1 mm 1 mps 742 mmHg 84%
    09:00 +30°C° 0.2 mm 1 mps 742 mmHg 74%
    10:00 +32°C° 0.2 mm 1 mps 741 mmHg 64%
    11:00 +35°C° 0.2 mm 2 mps 741 mmHg 55%
    12:00 +35°C° 0.2 mm 1 mps 740 mmHg 54%
    13:00 +35°C° 0.2 mm 1 mps 739 mmHg 52%
    14:00 +35°C° 0.2 mm 1 mps 738 mmHg 51%
    15:00 +34°C° 0.5 mm 1 mps 738 mmHg 56%
    16:00 +34°C° 0.5 mm 2 mps 738 mmHg 62%
    17:00 +32°C° 0.5 mm 2 mps 738 mmHg 67%
    18:00 +30°C° 0.2 mm 2 mps 738 mmHg 74%
    19:00 +29°C° 0.2 mm 2 mps 739 mmHg 81%
    20:00 +27°C° 0.2 mm 2 mps 739 mmHg 89%
    21:00 +27°C° 0 mm 2 mps 740 mmHg 90%
    22:00 +26°C° 0 mm 2 mps 740 mmHg 91%
    23:00 +26°C° 0 mm 1 mps 740 mmHg 93%

    24 February, Sunday

    Time Temperature Precipitation Wind Pressure Humidity
    00:00 +26°C° 0 mm 1 mps 739 mmHg 93%
    01:00 +26°C° 0 mm 1 mps 738 mmHg 94%
    02:00 +26°C° 0 mm 1 mps 738 mmHg 95%
    03:00 +26°C° 0 mm 1 mps 738 mmHg 95%
    04:00 +26°C° 0 mm 1 mps 738 mmHg 95%
    05:00 +26°C° 0 mm 1 mps 739 mmHg 95%
    06:00 +27°C° 0.1 mm 1 mps 739 mmHg 90%
    07:00 +28°C° 0.1 mm 1 mps 740 mmHg 84%
    08:00 +29°C° 0.1 mm 1 mps 740 mmHg 79%
    09:00 +31°C° 0.3 mm 1 mps 740 mmHg 71%
    10:00 +33°C° 0.3 mm 1 mps 740 mmHg 62%
    11:00 +34°C° 0.3 mm 1 mps 740 mmHg 54%
    12:00 +35°C° 0.4 mm 1 mps 739 mmHg 53%
    13:00 +36°C° 0.4 mm 2 mps 738 mmHg 53%
    14:00 +36°C° 0.4 mm 2 mps 737 mmHg 53%
    15:00 +34°C° 0.5 mm 2 mps 737 mmHg 60%
    16:00 +32°C° 0.5 mm 2 mps 737 mmHg 66%
    17:00 +30°C° 0.5 mm 2 mps 737 mmHg 73%
    18:00 +29°C° 0.1 mm 2 mps 738 mmHg 78%
    19:00 +28°C° 0.1 mm 2 mps 738 mmHg 83%
    20:00 +27°C° 0.1 mm 2 mps 739 mmHg 87%
    21:00 +27°C° 0 mm 2 mps 739 mmHg 89%
    22:00 +26°C° 0 mm 2 mps 739 mmHg 90%
    23:00 +26°C° 0 mm 2 mps 739 mmHg 92%

    25 February, Monday

    Time Temperature Precipitation Wind Pressure Humidity
    00:00 +26°C° 0 mm 1 mps 739 mmHg 93%
    01:00 +25°C° 0 mm 1 mps 738 mmHg 94%
    02:00 +25°C° 0 mm 1 mps 738 mmHg 95%
    03:00 +25°C° 0.1 mm 1 mps 738 mmHg 96%
    04:00 +25°C° 0.1 mm 1 mps 738 mmHg 96%
    05:00 +25°C° 0.1 mm 1 mps 738 mmHg 96%
    06:00 +26°C° 0 mm 1 mps 739 mmHg 90%
    07:00 +28°C° 0 mm 1 mps 739 mmHg 84%
    08:00 +29°C° 0 mm 2 mps 740 mmHg 78%
    09:00 +30°C° 0.1 mm 2 mps 740 mmHg 71%
    10:00 +32°C° 0.1 mm 2 mps 739 mmHg 64%
    11:00 +34°C° 0.1 mm 2 mps 739 mmHg 58%
    12:00 +35°C° 0.6 mm 2 mps 738 mmHg 57%
    13:00 +35°C° 0.6 mm 2 mps 738 mmHg 56%
    14:00 +35°C° 0.6 mm 2 mps 737 mmHg 56%
    15:00 +34°C° 1.4 mm 2 mps 737 mmHg 63%
    16:00 +31°C° 1.4 mm 2 mps 737 mmHg 71%
    17:00 +29°C° 1.4 mm 2 mps 737 mmHg 78%
    18:00 +28°C° 0.3 mm 2 mps 738 mmHg 82%
    19:00 +27°C° 0.3 mm 2 mps 739 mmHg 85%
    20:00 +26°C° 0.3 mm 2 mps 739 mmHg 88%
    21:00 +26°C° 0 mm 2 mps 739 mmHg 89%
    22:00 +26°C° 0 mm 2 mps 739 mmHg 91%
    23:00 +26°C° 0 mm 2 mps 739 mmHg 92%

    26 February, Tuesday

    Time Temperature Precipitation Wind Pressure Humidity
    00:00 +26°C° 0 mm 2 mps 739 mmHg 93%
    01:00 +25°C° 0 mm 1 mps 738 mmHg 94%
    02:00 +25°C° 0 mm 1 mps 738 mmHg 94%
    03:00 +25°C° 0 mm 1 mps 738 mmHg 95%
    04:00 +25°C° 0 mm 1 mps 738 mmHg 96%
    05:00 +25°C° 0 mm 1 mps 738 mmHg 97%
    06:00 +26°C° 0 mm 1 mps 739 mmHg 92%
    07:00 +27°C° 0 mm 1 mps 739 mmHg 86%
    08:00 +28°C° 0 mm 2 mps 740 mmHg 81%
    09:00 +30°C° 0.1 mm 1 mps 739 mmHg 73%
    10:00 +32°C° 0.1 mm 1 mps 739 mmHg 65%
    11:00 +34°C° 0.1 mm 1 mps 739 mmHg 57%
    12:00 +34°C° 0.8 mm 2 mps 738 mmHg 60%
    13:00 +34°C° 0.8 mm 2 mps 738 mmHg 62%
    14:00 +34°C° 0.8 mm 2 mps 737 mmHg 65%
    15:00 +32°C° 1.8 mm 2 mps 737 mmHg 70%
    16:00 +30°C° 1.8 mm 2 mps 737 mmHg 75%
    17:00 +29°C° 1.8 mm 2 mps 737 mmHg 80%
    18:00 +28°C° 1.4 mm 2 mps 738 mmHg 84%
    19:00 +27°C° 1.4 mm 2 mps 739 mmHg 87%
    20:00 +26°C° 1.4 mm 2 mps 739 mmHg 91%
    21:00 +26°C° 0.4 mm 2 mps 739 mmHg 91%
    22:00 +26°C° 0.4 mm 2 mps 740 mmHg 92%
    23:00 +26°C° 0.4 mm 2 mps 740 mmHg 93%
    Show more